Location: *
(47.7167°N, 1.7333°W)
Time: 02:14:04
(UTC+00:00)

BREEZE M DEB (TANK) - Pass Details

Date: 09 April 2020
Orbit: 304 x 11878 km, 49.5° (Epoch: 22 May)

Event Time Altitude Azimuth Distance (km) Brightness Sun altitude
Rises 19:18:02 0° 188° (S) 2,150 5.2 -5.6°
Reaches altitude 10° 19:19:58 10° 163° (SSE) 1,575 4.3 -5.9°
Maximum altitude 19:22:11 17° 119° (ESE) 1,584 4.0 -6.2°
Drops below altitude 10° 19:25:54 10° 79° (E) 2,847 5.4 -6.8°
Sets 19:31:30 0° 64° (ENE) 5,241 6.9 -7.7°
